Weather History for Lihue, HI

Change the Weather History Date:

Tuesday, September 10, 2013

  Actual Average Record
Temperature  
Mean Temperature 81 °F 80 °F  
Max Temperature 85 °F 85 °F 88 °F (1958)
Min Temperature 77 °F 74 °F 50 °F (2008)
Degree Days  
Heating Degree Days 0 0  
Month to date heating degree days 0 0  
Since 1 July heating degree days 0 0  
Cooling Degree Days 16 15  
Month to date cooling degree days 153 150  
Year to date cooling degree days 2449 2676  
Growing Degree Days 30 (Base 50)    
Moisture  
Dew Point 70 °F    
Average Humidity 72    
Maximum Humidity 82    
Minimum Humidity 61    
Precipitation  
Precipitation T in 0.06 in 0.30 in (1993)
Month to date precipitation 0.70 0.59  
Year to date precipitation 17.91 22.04  
Snow  
Snow 0.00 in - - ()
Month to date snowfall 0.0  
Since 1 July snowfall 0.0  
Since 1 September snowfall 0.0  
Snow Depth 0.00 in    
Sea Level Pressure  
Sea Level Pressure 30.07 in    
Wind  
Wind Speed 12 mph (NE)    
Max Wind Speed 18 mph    
Max Gust Speed 23 mph    
Visibility 10 miles    
Events      
T = Trace of Precipitation, MM = Missing Value Source: NWS Daily Summary

Daily Weather History Graph

Daily Weather History Graph

Search for Another Location

Airport:

Trip Planner

Search our weather history database for the weather conditions in past years. The results will help you decide how hot, cold, wet, or windy it might be!

Date:

Astronomy

Sep. 10, 2013 Rise Set
Actual Time 6:23 AM HST 6:44 PM HST
Civil Twilight 6:00 AM HST 7:07 PM HST
Nautical Twilight 5:34 AM HST 7:33 PM HST
Astronomical Twilight 5:07 AM HST 7:59 PM HST
Moon 11:17 AM HST (9/10) 10:41 PM HST (9/10)
Length of Visible Light 13h 06m
Length of Day
12h 21m
Waxing Crescent, 30% of the Moon is Illuminated
Sep 10
Waxing Crescent
Sep 12
First Quarter
Sep 19
Full
Sep 26
Last Quarter
Oct 4
New

Hourly Weather History & Observations

Time (HST) Temp. Heat Index Dew Point Humidity Pressure Visibility Wind Dir Wind Speed Gust Speed Precip Events Conditions
12:53 AM 77.0 °F - 70.0 °F 79% 30.09 in 10.0 mi ENE 12.7 mph - N/A   Clear
1:53 AM 77.0 °F - 71.1 °F 82% 30.07 in 10.0 mi ENE 11.5 mph - N/A   Scattered Clouds
2:53 AM 78.1 °F - 70.0 °F 76% 30.06 in 10.0 mi ENE 11.5 mph - N/A   Scattered Clouds
3:53 AM 77.0 °F - 70.0 °F 79% 30.05 in 10.0 mi ENE 10.4 mph - 0.00 in   Partly Cloudy
4:53 AM 77.0 °F - 70.0 °F 79% 30.05 in 10.0 mi ENE 12.7 mph - N/A   Scattered Clouds
5:53 AM 77.0 °F - 69.1 °F 76% 30.06 in 10.0 mi ENE 11.5 mph - N/A   Clear
6:53 AM 78.1 °F - 69.1 °F 74% 30.07 in 10.0 mi ENE 11.5 mph - N/A   Partly Cloudy
7:27 AM 78.8 °F - 69.8 °F 74% 30.08 in 10.0 mi NE 13.8 mph - N/A   Partly Cloudy
7:53 AM 80.1 °F 82.7 °F 68.0 °F 67% 30.08 in 10.0 mi NE 11.5 mph - N/A   Clear
8:53 AM 82.0 °F 85.5 °F 69.1 °F 65% 30.09 in 10.0 mi NE 13.8 mph - N/A   Scattered Clouds
9:53 AM 82.9 °F 86.5 °F 69.1 °F 63% 30.09 in 10.0 mi NE 13.8 mph - N/A   Partly Cloudy
10:53 AM 82.9 °F 86.5 °F 69.1 °F 63% 30.08 in 10.0 mi NE 12.7 mph - N/A   Partly Cloudy
11:53 AM 84.9 °F 89.4 °F 70.0 °F 61% 30.07 in 10.0 mi NE 12.7 mph - N/A   Partly Cloudy
12:53 PM 84.0 °F 88.4 °F 70.0 °F 63% 30.06 in 10.0 mi NE 11.5 mph - N/A   Partly Cloudy
1:53 PM 84.0 °F 88.4 °F 70.0 °F 63% 30.04 in 10.0 mi NE 15.0 mph - N/A   Overcast
2:53 PM 82.9 °F 87.5 °F 71.1 °F 67% 30.03 in 10.0 mi NNE 10.4 mph - 0.00 in   Scattered Clouds
3:20 PM 82.4 °F 87.2 °F 71.6 °F 70% 30.03 in 10.0 mi NE 13.8 mph - N/A   Mostly Cloudy
3:53 PM 82.9 °F 87.5 °F 71.1 °F 67% 30.02 in 10.0 mi NE 12.7 mph - N/A   Mostly Cloudy
4:53 PM 81.0 °F 84.9 °F 71.1 °F 72% 30.03 in 10.0 mi NE 11.5 mph - N/A   Mostly Cloudy
5:00 PM 80.6 °F 84.6 °F 71.6 °F 74% 30.04 in 10.0 mi NE 11.5 mph - N/A   Mostly Cloudy
5:43 PM 80.6 °F 84.6 °F 71.6 °F 74% 30.05 in 10.0 mi NE 15.0 mph - N/A   Mostly Cloudy
5:53 PM 81.0 °F 84.4 °F 70.0 °F 69% 30.05 in 10.0 mi NE 13.8 mph - N/A   Mostly Cloudy
6:09 PM 80.6 °F 83.9 °F 69.8 °F 70% 30.05 in 10.0 mi NE 13.8 mph - N/A   Scattered Clouds
6:53 PM 79.0 °F - 71.1 °F 77% 30.06 in 10.0 mi NE 12.7 mph - N/A   Partly Cloudy
7:53 PM 79.0 °F - 70.0 °F 74% 30.08 in 10.0 mi NE 12.7 mph - N/A   Partly Cloudy
8:53 PM 79.0 °F - 71.1 °F 77% 30.09 in 10.0 mi NE 12.7 mph - N/A   Clear
9:29 PM 78.8 °F - 71.6 °F 78% 30.10 in 10.0 mi NE 11.5 mph - N/A   Mostly Cloudy
9:36 PM 78.8 °F - 71.6 °F 78% 30.10 in 10.0 mi NE 10.4 mph - N/A   Scattered Clouds
9:53 PM 79.0 °F - 71.1 °F 77% 30.10 in 10.0 mi NE 13.8 mph - N/A   Clear
10:53 PM 80.1 °F 83.2 °F 70.0 °F 71% 30.09 in 10.0 mi NE 13.8 mph - N/A   Partly Cloudy
11:53 PM 79.0 °F - 71.1 °F 77% 30.09 in 10.0 mi NE 11.5 mph - N/A   Scattered Clouds